Date String (YYYY-MM-DD hh:mm:ss) UTC,Instrument flags,Ambient pressure (hPa),Sample flow (lpm),Bypass flow (lpm),Sample temperature (°C),Ambient temperature (°C),ASC tube jacket temperature (°C),LED temperature (°C),Box temperature (°C),Sample RH (%),Span deviation,Mass concentration (μg/m³),Mass concentration (μg/m³),Mass concentration (μg/m³)
DateTimeUTC,F1_M11,P_M11,Q1_M11,Q2_M11,T1_M11,T2_M11,T3_M11,T4_M11,T5_M11,U1_M11,ZSPAN_M11,X0_M11,X2_M11,X1_M11
2021-08-20 01:00:00,,0823.7,4.99,0.00,32.3,26.9,00.0,40.7,32.1,35.8,0001.2,0010.84,0006.80,0005.93
2021-08-20 01:01:00,,0823.7,5.01,0.00,32.5,27.3,00.0,40.7,32.3,36.0,0001.2,0010.80,0006.75,0005.90
2021-08-20 01:02:00,,0823.8,5.00,0.00,32.8,27.7,00.0,40.7,32.4,33.9,0001.0,0010.71,0006.67,0005.82
2021-08-20 01:03:00,,0823.8,5.00,0.00,32.9,28.0,00.0,40.7,32.5,33.8,0001.3,0010.69,0006.59,0005.75
2021-08-20 01:04:00,,0823.9,4.99,0.00,33.0,28.2,00.0,40.8,32.5,33.2,0001.3,0010.57,0006.49,0005.68
2021-08-20 01:05:00,,0824.0,5.00,0.00,32.9,28.4,00.0,40.8,32.5,33.8,0001.8,0010.40,0006.40,0005.62
2021-08-20 01:06:00,,0824.0,5.00,0.00,32.9,28.6,00.0,40.9,32.5,34.0,0002.0,0010.31,0006.34,0005.56
2021-08-20 01:07:00,,0824.0,5.01,0.00,32.9,28.7,00.0,40.9,32.5,33.8,0002.1,0010.18,0006.27,0005.50
2021-08-20 01:08:00,,0823.9,4.98,0.00,32.8,28.9,00.0,41.0,32.6,34.7,0002.4,0010.14,0006.21,0005.43
2021-08-20 01:09:00,,0824.0,5.01,0.00,32.9,29.0,00.0,41.0,32.6,35.0,0002.5,0009.96,0006.12,0005.38
2021-08-20 01:10:00,,0823.9,5.00,0.00,33.0,29.0,00.0,41.1,32.8,33.2,0002.6,0009.61,0005.94,0005.27
2021-08-20 01:11:00,,0824.0,4.99,0.00,33.0,28.7,00.0,41.1,32.6,32.8,0002.7,0009.39,0005.76,0005.14
2021-08-20 01:12:00,,0824.0,4.99,0.00,32.9,27.0,00.0,41.1,32.1,33.5,0002.6,0009.09,0005.63,0005.04
2021-08-20 01:13:00,,0824.0,5.01,0.00,32.6,26.0,00.0,41.1,31.8,34.3,0002.9,0008.98,0005.56,0004.98
2021-08-20 01:14:00,,0824.0,4.99,0.00,32.5,26.0,00.0,41.0,31.8,34.3,0002.8,0008.72,0005.46,0004.91
2021-08-20 01:15:00,,0824.0,5.02,0.00,32.3,26.4,00.0,41.0,31.8,34.2,0002.6,0008.62,0005.41,0004.87
2021-08-20 01:16:00,,0824.0,5.00,0.00,32.2,26.9,00.0,40.9,31.9,33.5,0002.5,0008.62,0005.30,0004.78
2021-08-20 01:17:00,,0824.0,4.99,0.00,32.1,27.3,00.0,40.8,32.0,33.8,0002.2,0008.41,0005.15,0004.66
2021-08-20 01:18:00,,0823.9,5.00,0.00,32.0,27.7,00.0,40.8,32.0,33.6,0002.2,0008.53,0005.04,0004.57
2021-08-20 01:19:00,,0823.8,5.01,0.00,31.9,28.0,00.0,40.8,32.1,33.6,0002.1,0008.26,0004.89,0004.47
2021-08-20 01:20:00,,0823.8,5.00,0.00,31.9,28.2,00.0,40.7,32.1,34.0,0002.0,0008.15,0004.80,0004.37
2021-08-20 01:21:00,,0823.8,5.00,0.00,31.8,28.4,00.0,40.7,32.2,34.3,0002.0,0008.15,0004.78,0004.33
2021-08-20 01:22:00,,0823.8,5.01,0.00,31.8,28.5,00.0,40.7,32.2,34.3,0001.6,0008.15,0004.74,0004.28
2021-08-20 01:23:00,,0823.9,5.01,0.00,31.8,28.7,00.0,40.7,32.3,34.0,0001.7,0008.12,0004.67,0004.22
2021-08-20 01:24:00,,0823.9,5.00,0.00,31.7,28.8,00.0,40.6,32.3,34.3,0001.2,0008.44,0004.58,0004.14
2021-08-20 01:25:00,,0824.0,5.01,0.00,31.7,28.8,00.0,40.6,32.3,33.7,0000.9,0008.74,0004.52,0004.07
2021-08-20 01:26:00,,0824.0,4.99,0.00,31.7,28.9,00.0,40.6,32.4,33.4,0001.2,0008.62,0004.45,0004.01
2021-08-20 01:27:00,,0824.0,4.99,0.00,31.7,29.0,00.0,40.6,32.4,33.3,0000.0,0008.37,0004.39,0003.96
2021-08-20 01:28:00,,0824.0,5.01,0.00,31.6,28.7,00.0,40.5,32.3,33.5,0000.0,0008.31,0004.35,0003.94
2021-08-20 01:29:00,,0824.0,5.00,0.00,31.5,27.1,00.0,40.5,31.9,33.8,0000.0,0008.05,0004.33,0003.91
2021-08-20 01:30:00,,0824.0,5.00,0.00,31.3,25.9,00.0,40.4,31.6,34.1,0000.0,0008.09,0004.31,0003.90
2021-08-20 01:31:00,,0824.0,5.00,0.00,31.2,25.8,00.0,40.3,31.5,34.4,0000.0,0008.05,0004.29,0003.89
2021-08-20 01:32:00,,0824.0,4.99,0.00,31.0,26.2,00.0,40.2,31.5,34.8,0000.0,0007.97,0004.26,0003.86
2021-08-20 01:33:00,,0824.0,5.01,0.00,30.9,26.7,00.0,40.2,31.6,34.8,0000.0,0007.95,0004.27,0003.85
2021-08-20 01:34:00,,0824.0,5.00,0.00,30.8,27.2,00.0,40.1,31.6,34.9,0000.0,0007.91,0004.26,0003.84
2021-08-20 01:35:00,,0824.0,4.99,0.00,30.8,27.5,00.0,40.0,31.7,35.0,0000.2,0007.39,0004.25,0003.83
2021-08-20 01:36:00,,0823.9,5.00,0.00,30.8,27.8,00.0,40.0,31.8,34.9,0001.2,0006.84,0004.21,0003.82
2021-08-20 01:37:00,,0823.9,5.00,0.00,30.9,28.0,00.0,39.9,31.9,34.5,0001.1,0006.72,0004.18,0003.81
2021-08-20 01:38:00,,0823.9,4.99,0.00,31.0,28.2,00.0,39.9,31.9,34.2,0001.5,0006.60,0004.16,0003.80
2021-08-20 01:39:00,,0823.9,4.99,0.00,31.0,28.4,00.0,39.9,32.0,34.2,0001.8,0006.55,0004.15,0003.80
2021-08-20 01:40:00,,0824.0,5.00,0.00,31.0,28.5,00.0,39.9,32.0,33.9,0001.6,0006.51,0004.14,0003.80
2021-08-20 01:41:00,,0823.9,5.01,0.00,31.0,28.6,00.0,39.9,32.0,34.1,0001.2,0006.36,0004.13,0003.80
2021-08-20 01:42:00,,0823.9,5.00,0.00,31.0,28.7,00.0,39.9,32.0,34.1,0001.3,0006.50,0004.13,0003.80
2021-08-20 01:43:00,,0823.9,4.99,0.00,31.0,28.8,00.0,39.9,32.1,33.9,0001.4,0006.52,0004.11,0003.80
2021-08-20 01:44:00,,0824.0,5.01,0.00,31.0,28.9,00.0,39.9,32.1,33.7,0000.8,0006.35,0004.09,0003.79
2021-08-20 01:45:00,,0823.9,4.99,0.00,31.0,29.0,00.0,39.9,32.1,33.3,0000.8,0006.33,0004.09,0003.79
2021-08-20 01:46:00,,0824.1,5.01,0.00,31.0,29.1,00.0,39.9,32.1,33.5,0001.0,0006.27,0004.08,0003.79
2021-08-20 01:47:00,,0824.0,5.01,0.00,31.0,28.2,00.0,39.9,31.9,33.6,0000.6,0006.30,0004.09,0003.79
2021-08-20 01:48:00,,0824.0,4.99,0.00,30.8,26.7,00.0,39.9,31.5,33.7,0000.2,0006.47,0004.12,0003.78
2021-08-20 01:49:00,,0824.0,4.99,0.00,30.7,26.4,00.0,39.8,31.4,33.3,-000.1,0006.60,0004.14,0003.78
2021-08-20 01:50:00,,0824.0,5.00,0.00,30.6,26.7,00.0,39.8,31.4,33.2,0000.2,0006.85,0004.15,0003.77
2021-08-20 01:51:00,,0824.0,5.01,0.00,30.5,27.1,00.0,39.7,31.5,33.3,0000.6,0006.88,0004.16,0003.77
2021-08-20 01:52:00,,0824.1,5.00,0.00,30.5,27.5,00.0,39.7,31.6,34.0,0000.7,0006.83,0004.15,0003.76
2021-08-20 01:53:00,,0824.1,5.01,0.00,30.4,27.8,00.0,39.6,31.7,34.4,0000.2,0006.74,0004.14,0003.75
2021-08-20 01:54:00,,0824.1,5.00,0.00,30.5,28.0,00.0,39.6,31.7,34.9,-000.0,0007.86,0004.16,0003.75
2021-08-20 01:55:00,,0824.1,4.98,0.00,30.5,28.2,00.0,39.6,31.8,34.7,0000.3,0008.04,0004.16,0003.77
2021-08-20 01:56:00,,0824.1,5.00,0.00,30.6,28.4,00.0,39.6,31.9,35.2,0000.3,0008.00,0004.16,0003.80
2021-08-20 01:57:00,,0824.1,5.02,0.00,30.8,28.5,00.0,39.6,32.0,33.6,0000.2,0007.99,0004.17,0003.82
2021-08-20 01:58:00,,0824.1,5.01,0.00,31.0,28.7,00.0,39.6,32.0,33.3,0000.5,0008.01,0004.18,0003.83
2021-08-20 01:59:00,,0824.1,4.98,0.00,31.0,28.8,00.0,39.6,32.0,32.6,0000.8,0007.99,0004.18,0003.84
